AirNav   Phillips 66 Aviation Fuel
 
 1434 users online  

9B1 Marlboro Airport
Marlboro, Massachusetts, USA

GOING TO MARLBORO?


FAA INFORMATION EFFECTIVE 24 MAY 2018

Location

FAA Identifier: 9B1
Lat/Long: 42-20-35.4000N / 071-30-32.4000W
42-20.590000N / 071-30.540000W
42.3431667 / -71.5090000
(estimated)
Elevation: 285 ft. / 87 m (estimated)
Variation: 15W (1985)
From city: 2 miles E of MARLBORO, MA
Time zone: UTC -4 (UTC -5 during Standard Time)
Zip code: 01752

Airport Operations

Airport use: Open to the public
Activation date: 04/1940
Control tower: no
ARTCC: BOSTON CENTER
FSS: BRIDGEPORT FLIGHT SERVICE STATION
NOTAMs facility: BDR (NOTAM-D service available)
Attendance: 0800-DUSK
Pattern altitude: 1385 ft. MSL
Wind indicator: yes
Segmented circle: no

Airport Communications

CTAF/UNICOM: 122.8
WX ASOS at BED (12 nm NE): PHONE 781-274-9733
WX ASOS at FIT (17 nm NW): 135.175 (978-343-9121)
WX ASOS at ORH (17 nm W): PHONE 508-795-7546
WX ASOS at OWD (18 nm SE): PHONE 781-762-4314
  • CLNC DLVY THRU BRIDGEPORT RADIO (BDR) 1-866-293-5149.

Nearby radio navigation aids

VOR radial/distance  VOR name  Freq  Var
BOSr284/23.0BOSTON VOR/DME112.7016W
GDMr131/27.2GARDNER VOR/DME110.6014W
PUTr047/27.6PUTNAM VOR/DME117.4014W
LWMr233/30.1LAWRENCE VOR/DME112.5015W
MHTr206/32.1MANCHESTER VOR/DME114.4015W
PVDr009/37.3PROVIDENCE VOR/DME115.6014W

 
NDB name  Hdg/Dist  Freq  Var  ID
BEDDS229/9.833216WBE -... .
SHAKER HILL261/16.125116WSKR ... -.- .-.
FITCHBURG154/16.636515WFIT ..-. .. -
TAUNTON338/35.622716WTAN - .- -.
MARSHFIELD308/39.836816WIMR .. -- .-.

Airport Services

Fuel available: 100LL
Parking: tiedowns
Airframe service: MAJOR
Powerplant service: MAJOR
Bottled oxygen: NONE
Bulk oxygen: NONE

Runway Information

Runway 14/32

Dimensions: 1659 x 45 ft. / 506 x 14 m
Surface: asphalt, in fair condition
Weight bearing capacity: 
Single wheel: 9.0
RUNWAY 14  RUNWAY 32
Latitude: 42-20.660635N42-20.518642N
Longitude: 071-30.696752W071-30.382200W
Elevation: 278.3 ft.273.1 ft.
Gradient: 0.3% UP
Traffic pattern: leftleft
Markings: basic, in fair conditionbasic, in fair condition
Obstructions: 80 ft. trees, 600 ft. from runway, 63 ft. left of centerline, 5:1 slope to clear
+15' ROAD & 4' FENCE ALONG ROAD.
72 ft. trees, 200 ft. from runway, 1:1 slope to clear
RY 32 HAS +72 FT TREES ON CNTRLN 200 FT FM THLD.

Airport Ownership and Management from official FAA records

Ownership: Privately-owned
Owner: SANDY STETSON
685 FARM ROAD
MARLBORO, MA 01752
Phone 508-485-0069
Manager: SANDY STETSON
685 FARM ROAD
MARLBORO, MA 01752
Phone 508-485-0069

Airport Operational Statistics

Aircraft based on the field: 25
Single engine airplanes: 24
Helicopters: 1
    
Aircraft operations: avg 48/day *
96% local general aviation
3% transient general aviation
<1% air taxi
<1% military
* for 12-month period ending 27 April 2016

Additional Remarks

NO NIGHT OPNS.
NO TOUCH & GO LNDGS.
NO LOW APCHS BELOW 500 FT AGL.
WILDLIFE ON AND IN VCTY OF AIRPORT

Instrument Procedures

There are no published instrument procedures at 9B1.

Some nearby airports with instrument procedures:

6B6 - Minute Man Air Field (7 nm N)
KBED - Laurence G Hanscom Field Airport (12 nm NE)
1B6 - Hopedale Industrial Park Airport (14 nm S)
KFIT - Fitchburg Municipal Airport (17 nm NW)
KORH - Worcester Regional Airport (17 nm W)
KOWD - Norwood Memorial Airport (18 nm SE)
 
Loc | Ops | Rwys | IFR | FBO | Links
Com | Nav | Svcs | Stats | Notes

AirNav Hotels Sweepstakes
 
Area around 9B1 (Marlboro Airport)
 
Road maps at: MapQuest Bing Google
 
Aerial photo
WARNING: Photo may not be current or correct
Aerial photo of 9B1 (Marlboro Airport)
Photo by Pete Chaisson, Portland Flight Services
Photo taken 15-May-2015
looking west.

Do you have a better or more recent aerial photo of Marlboro Airport that you would like to share? If so, please send us your photo.

 
Sectional chart

 
Airport distance calculator
Flying to Marlboro Airport? Find the distance to fly.

From to 9B1

Sunrise and sunset
Times for 25-May-2018
 Local
(UTC-4)
 Zulu
(UTC)
Morning civil twilight04:4408:44
Sunrise05:1709:17
Sunset20:0900:09
Evening civil twilight20:4200:42

Current date and time
Zulu (UTC)  25-May-2018 16:22:43
Local (UTC-4)  25-May-2018 12:22:43
 
METAR
KBED 
12nm NE 
251556Z 27011G23KT 10SM CLR 29/09 A2985 RMK AO2 PK WND 28027/1540 SLP118 T02890094
KFIT 
16nm NW 
251552Z AUTO 28011G19KT 10SM CLR 27/10 A2988 RMK AO2 SLP117 T02720100
KORH 
17nm W 
251554Z 25016G21KT 10SM CLR 26/10 A2992 RMK AO2 SLP130 T02560100
KOWD 
18nm SE 
251553Z 25010G20KT 10SM CLR 30/11 A2987 RMK AO2 SLP114 T03000106
KMQE 
19nm SE 
251556Z AUTO 27015G22KT 27/10 A2988 RMK AO1 PK WND 29027/1506 SLP126 T02720100
KBOS 
22nm E 
251554Z 26020G25KT 10SM BKN300 29/08 A2985 RMK AO2 PK WND 28029/1527 SLP107 T02890083
TAF
KBED 
12nm NE 
251125Z 2512/2612 25008KT P6SM FEW250 FM251500 26011G25KT P6SM FEW250 FM260000 24007KT P6SM SCT110 FM260500 23006KT P6SM FEW120
KORH 
17nm W 
251125Z 2512/2612 26011KT P6SM FEW250 FM251600 27014G24KT P6SM FEW250 FM260200 25009KT P6SM FEW200
NOTAMs
Click for the latest NOTAMs
NOTAMs are issued by the DoD/FAA and will open in a separate window not controlled by AirNav.

 

 
 

Would you like to see your business listed on this page?

 If your business provides an interesting product or service to pilots, flight crews, aircraft, or users of the Marlboro Airport, you should consider listing it here.  To start the listing process, click on the button below
 
Add a business
 

Other Pages about Marlboro Airport

www.marlboroairport.org
 
Update a link
 
Copyright © AirNav, LLC. All rights reserved. Privacy Policy  Contact